Weather reports worldwide

Advertisment
Freiburg, Germany (10803): temperature & dewpoint: 18.03.2019 17:00:00 - 24.03.2019 17:00:00 (CET)Freiburg, Germany (10803): temperature 5cm & temperature -5cm: 18.03.2019 17:00:00 - 24.03.2019 17:00:00 (CET)Freiburg, Germany (10803): temperature -20cm & temperature -100cm: 18.03.2019 17:00:00 - 24.03.2019 17:00:00 (CET)Freiburg, Germany (10803): wind speed & gusts: 18.03.2019 17:00:00 - 24.03.2019 17:00:00 (CET)Freiburg, Germany (10803): wind direction: 18.03.2019 17:00:00 - 24.03.2019 17:00:00 (CET)Freiburg, Germany (10803): reduced air pressure: 18.03.2019 17:00:00 - 24.03.2019 17:00:00 (CET)Freiburg, Germany (10803): visibility: 18.03.2019 17:00:00 - 24.03.2019 17:00:00 (CET)Freiburg, Germany (10803): sunshine duration: 18.03.2019 17:00:00 - 24.03.2019 17:00:00 (CET)Freiburg, Germany (10803): precipitation: 18.03.2019 17:00:00 - 24.03.2019 17:00:00 (CET)
Date & Time tt [°C] td [°C] tt 5cm [°C] tt -5cm [°C] tt -20cm [°C] tt -100cm [°C] ff [km/h] ff [kn] fx [km/h] fx [kn] dd ppp [hPa] vv [km] sd [min] rr [mm]
24.03.2019 17:00:00 15,5 4,8 18,0 16,8 11,6 7,8 14 7 24 13 N 1022,5 8 60 0,0
24.03.2019 16:00:00 16,8 4,3 21,7 19,2 11,2 7,8 13 7 20 11 NNW 1022,2 12 60 0,0
24.03.2019 15:00:00 16,7 3,0 22,0 20,2 10,5 7,8 8 4 21 11 WNW 1022,6 12 60 0,0
24.03.2019 14:00:00 16,0 4,4 22,9 20,7 9,7 7,8 8 4 16 9 NNW 1023,1 9 60 0,0
24.03.2019 13:00:00 14,9 4,1 21,1 19,8 8,8 7,8 6 4 16 8 NW 1024,0 8 60 0,0
24.03.2019 12:00:00 12,8 4,6 21,2 17,6 8,0 7,8 2 1 11 6 NNW 1024,7 5 60 0,0
24.03.2019 11:00:00 10,6 4,0 15,1 14,3 7,4 7,8 5 3 12 6 WSW 1025,3 4,8 60 0,0
24.03.2019 10:00:00 8,9 3,9 14,9 11,0 7,0 7,7 5 3 9 5 NW 1025,8 4,2 60 0,0
24.03.2019 09:00:00 7,2 3,3 11,2 7,2 6,9 7,7 3 2 6 3 N 1026,2 3,9 60 0,0
24.03.2019 08:00:00 4,1 1,7 3,4 3,6 7,1 7,7 0 0 4 2 N 1026,5 6 10 0,0
24.03.2019 07:00:00 2,9 1,5 -1,1 2,6 7,4 7,7 4 2 7 4 SW 1026,7 5 0 0,0
24.03.2019 06:00:00 3,2 1,5 -2,0 2,9 7,7 7,7 3 2 5 3 S 1026,5 5 0 0,0
24.03.2019 05:00:00 3,2 1,9 -1,0 3,3 8,0 7,7 3 2 5 3 WSW 1026,5 3,4 0 0,0
24.03.2019 04:00:00 3,7 2,4 -0,4 3,8 8,4 7,7 5 3 6 3 WSW 1026,3 2,8 0 0,0
24.03.2019 03:00:00 4,6 2,7 1,0 4,2 8,8 7,7 4 2 5 3 S 1026,6 4,5 0 0,0
24.03.2019 02:00:00 5,0 2,3 -0,2 4,7 9,1 7,7 0 0 7 4 N 1026,8 7 0 0,0
24.03.2019 01:00:00 6,7 2,4 1,4 5,4 9,5 7,7 5 3 8 4 NE 1026,8 11 0 0,0
24.03.2019 00:00:00 4,9 1,9 0,8 6,1 9,9 7,7 3 1 7 4 WSW 1027,1 11 0 0,0
23.03.2019 23:00:00 6,7 2,8 1,3 6,9 10,4 7,7 3 2 10 5 N 1027,0 11 0 0,0
23.03.2019 22:00:00 7,8 3,0 2,5 7,7 10,8 7,7 0 0 5 3 N 1027,6 12 0 0,0
23.03.2019 21:00:00 9,5 3,4 3,2 8,9 11,2 7,7 2 1 6 4 NNW 1027,1 7 0 0,0
23.03.2019 20:00:00 11,5 3,2 4,4 10,5 11,5 7,7 3 2 11 6 NE 1026,8 11 0 0,0
23.03.2019 19:00:00 15,5 2,3 10,9 12,5 11,8 7,7 9 5 20 11 N 1025,9 12 4 0,0
23.03.2019 18:00:00 17,4 1,5 17,3 15,1 11,8 7,7 12 7 20 11 N 1025,5 16 60 0,0
23.03.2019 17:00:00 18,1 0,2 21,1 17,7 11,5 7,6 13 7 21 12 NNW 1025,3 18 60 0,0
23.03.2019 16:00:00 18,7 -1,5 24,0 19,9 11,0 7,6 13 7 20 11 NNW 1025,4 23 60 0,0
23.03.2019 15:00:00 18,4 -0,8 25,0 20,9 10,3 7,6 10 5 17 9 NNW 1025,9 19 60 0,0
23.03.2019 14:00:00 17,6 -0,5 25,1 21,0 9,4 7,6 10 6 23 12 NW 1026,7 21 60 0,0
23.03.2019 13:00:00 17,7 1,1 23,6 20,4 8,4 7,6 4 2 13 7 WNW 1027,2 20 60 0,0
23.03.2019 12:00:00 15,7 0,6 20,8 18,1 7,6 7,6 5 3 14 8 WNW 1027,8 18 60 0,0
23.03.2019 11:00:00 14,1 2,2 20,4 15,1 6,8 7,6 8 4 13 7 NW 1028,3 23 60 0,0
23.03.2019 10:00:00 12,3 1,7 16,9 11,4 6,3 7,6 5 3 8 4 NNE 1028,9 24 60 0,0
23.03.2019 09:00:00 10,0 1,7 11,7 7,1 6,2 7,6 0 0 4 2 N 1029,1 21 60 0,0
23.03.2019 08:00:00 6,2 2,2 4,8 3,0 6,4 7,6 3 2 5 3 NE 1029,3 12 48 0,0
23.03.2019 07:00:00 1,2 -0,2 -2,6 1,8 6,7 7,6 0 0 3 2 N 1029,6 11 0 0,0
23.03.2019 06:00:00 1,1 0,1 -3,1 2,0 7,0 7,6 3 2 7 4 N 1029,4 6 0 0,0
23.03.2019 05:00:00 2,7 0,6 -2,2 2,5 7,3 7,6 0 0 5 3 N 1029,3 12 0 0,0
23.03.2019 04:00:00 2,3 0,8 -2,2 2,9 7,7 7,6 0 0 4 2 N 1029,5 9 0 0,0
23.03.2019 03:00:00 3,0 0,7 -1,8 3,5 8,0 7,6 0 0 4 2 N 1029,3 14 0 0,0
23.03.2019 02:00:00 4,1 1,8 -0,1 4,0 8,4 7,6 0 0 5 3 N 1029,5 12 0 0,0
23.03.2019 01:00:00 4,2 1,6 -1,0 4,7 8,8 7,6 0 0 4 2 N 1029,3 16 0 0,0
23.03.2019 00:00:00 5,4 2,7 -0,4 5,4 9,3 7,6 3 1 4 2 WSW 1029,0 16 0 0,0
22.03.2019 23:00:00 5,3 1,8 1,0 6,3 9,7 7,6 3 2 5 3 N 1028,9 17 0 0,0
22.03.2019 22:00:00 7,3 1,9 2,3 7,4 10,1 7,6 0 0 6 3 N 1028,8 21 0 0,0
22.03.2019 21:00:00 9,6 2,7 3,5 8,7 10,5 7,6 4 2 6 4 S 1028,3 22 0 0,0
22.03.2019 20:00:00 12,1 2,4 5,6 10,2 10,8 7,6 3 2 6 3 S 1028,1 19 0 0,0
22.03.2019 19:00:00 14,4 1,5 7,4 12,5 10,9 7,6 3 2 7 4 NNW 1027,4 21 1 0,0
22.03.2019 18:00:00 17,5 0,4 16,5 15,6 10,7 7,6 4 2 9 5 WSW 1027,0 20 58 0,0
22.03.2019 17:00:00 17,8 1,0 20,2 17,6 10,4 7,6 6 3 11 6 SSW 1027,2 22 60 0,0
22.03.2019 16:00:00 17,4 0,8 23,3 19,4 9,8 7,6 6 3 11 6 NNW 1027,7 21 60 0,0
22.03.2019 15:00:00 16,6 -0,6 21,5 20,0 9,0 7,6 6 4 11 6 S 1028,4 22 60 0,0
22.03.2019 14:00:00 15,5 -1,3 20,4 19,7 8,1 7,6 7 4 21 11 WSW 1028,8 18 60 0,0
22.03.2019 13:00:00 14,2 -1,6 19,5 18,7 7,2 7,6 4 2 14 8 NNW 1029,3 26 60 0,0
22.03.2019 12:00:00 13,3 -1,5 18,9 16,5 6,2 7,6 7 4 11 6 WSW 1029,9 27 60 0,0
22.03.2019 11:00:00 11,4 -1,0 16,5 13,5 5,5 7,6 4 2 8 5 SW 1030,5 24 60 0,0
22.03.2019 10:00:00 8,9 -1,5 13,7 9,5 5,1 7,6 5 3 9 5 WSW 1031,1 23 60 0,0
22.03.2019 09:00:00 6,9 -0,6 11,4 5,0 4,9 7,6 5 3 7 4 N 1031,6 30 60 0,0
22.03.2019 08:00:00 3,8 -1,1 4,3 1,0 5,1 7,6 0 0 4 2 N 1031,7 22 47 0,0
22.03.2019 07:00:00 0,2 -2,9 -3,7 0,8 5,4 7,6 2 1 5 3 ESE 1032,0 21 0 0,0
22.03.2019 06:00:00 0,6 -2,0 -3,6 1,0 5,7 7,6 3 2 5 3 SW 1031,8 25 0 0,0
22.03.2019 05:00:00 1,1 -2,1 -3,6 1,2 5,9 7,6 0 0 6 4 N 1031,4 30 0 0,0
22.03.2019 04:00:00 1,7 -1,8 -3,5 1,3 6,3 7,6 3 2 7 4 SW 1031,0 26 0 0,0
22.03.2019 03:00:00 1,9 -2,1 -3,2 1,8 6,6 7,6 2 1 8 4 S 1031,0 32 0 0,0
22.03.2019 02:00:00 3,3 -1,6 -2,5 2,4 7,0 7,6 3 2 8 4 NNW 1031,0 37 0 0,0
22.03.2019 01:00:00 4,3 -1,7 -0,9 3,0 7,3 7,6 3 1 6 3 N 1031,0 43 0 0,0
22.03.2019 00:00:00 4,3 -1,5 -1,4 3,7 7,7 7,6 4 2 9 5 NNE 1031,3 28 0 0,0
21.03.2019 23:00:00 7,7 -1,1 3,3 4,6 8,0 7,6 8 4 13 7 E 1030,8 30 0 0,0
21.03.2019 22:00:00 9,8 -1,7 5,7 5,3 8,4 7,6 7 4 9 5 SE 1031,1 44 0 0,0
21.03.2019 21:00:00 8,6 -1,4 1,1 6,5 8,7 7,6 3 2 13 7 E 1031,2 50 0 0,0
21.03.2019 20:00:00 12,4 -2,2 7,7 7,8 9,0 7,6 7 4 14 8 ENE 1030,3 39 0 0,0
21.03.2019 19:00:00 13,7 -3,1 10,4 9,7 9,1 7,6 11 6 24 13 NNE 1029,7 61 1 0,0
21.03.2019 18:00:00 15,5 -2,7 15,0 12,0 9,1 7,6 13 7 28 15 N 1028,9 65 60 0,0
21.03.2019 17:00:00 16,5 -3,0 18,0 14,3 8,8 7,6 16 8 31 17 NNE 1028,6 63 60 0,0
21.03.2019 16:00:00 16,7 -2,3 20,5 15,8 8,3 7,6 16 8 30 16 N 1028,7 49 60 0,0
21.03.2019 15:00:00 16,7 -2,3 21,4 17,0 7,6 7,6 10 6 23 13 N 1029,0 47 60 0,0
21.03.2019 14:00:00 15,5 -2,7 21,1 15,9 6,9 7,6 12 7 36 20 N 1029,6 36 60 0,0
21.03.2019 13:00:00 13,5 -1,5 18,7 14,9 6,2 7,6 23 12 32 18 NNW 1030,8 24 60 0,0
21.03.2019 12:00:00 12,6 -0,1 18,0 13,9 5,4 7,6 19 11 29 16 NNW 1031,5 25 60 0,0
21.03.2019 11:00:00 11,1 -1,4 16,9 11,4 4,7 7,6 11 6 19 10 NNE 1032,2 43 60 0,0
21.03.2019 10:00:00 7,6 -0,8 13,2 7,6 4,4 7,6 8 4 13 7 NNW 1033,0 33 60 0,0
21.03.2019 09:00:00 4,5 -2,3 7,8 2,9 4,4 7,6 6 3 13 7 N 1033,5 35 60 0,0
21.03.2019 08:00:00 2,4 -3,0 3,5 0,5 4,6 7,6 6 3 16 9 NNE 1033,9 41 44 0,0
21.03.2019 07:00:00 0,7 -3,3 -2,9 0,5 4,8 7,6 6 3 13 7 N 1033,7 26 0 0,0
21.03.2019 06:00:00 0,4 -3,0 -2,7 0,6 5,0 7,6 7 4 11 6 N 1033,7 25 0 0,0
21.03.2019 05:00:00 -0,4 -4,0 -3,1 0,8 5,2 7,6 7 4 12 7 N 1033,5 47 0 0,0
21.03.2019 04:00:00 0,3 -2,9 -4,0 1,1 5,5 7,7 5 3 12 6 N 1033,4 24 0 0,0
21.03.2019 03:00:00 1,1 -2,5 -2,5 1,3 5,8 7,7 5 3 12 7 NE 1033,7 32 0 0,0
21.03.2019 02:00:00 2,9 -2,4 -0,2 1,6 6,1 7,7 8 4 12 6 NNE 1034,0 32 0 0,0
21.03.2019 01:00:00 3,9 -2,6 -0,6 2,1 6,4 7,7 7 4 16 9 NE 1034,1 36 0 0,0
21.03.2019 00:00:00 4,9 -2,6 2,3 2,8 6,7 7,7 10 5 21 12 NE 1034,3 29 0 0,0
20.03.2019 23:00:00 5,9 -2,6 2,1 3,1 7,0 7,7 10 5 20 11 NE 1034,2 56 0 0,0
20.03.2019 22:00:00 5,2 -1,8 -0,6 3,4 7,4 7,7 5 3 9 5 ENE 1034,3 6 0 0,0
20.03.2019 21:00:00 4,9 -1,9 -0,4 4,4 7,8 7,7 4 2 8 4 NW 1034,1 57 0 0,0
20.03.2019 20:00:00 8,5 -1,9 1,6 5,8 8,1 7,7 6 3 15 8 N 1033,7 59 0 0,0
20.03.2019 19:00:00 10,3 -2,3 6,0 7,4 8,3 7,7 9 5 26 14 N 1033,0 67 0 0,0
20.03.2019 18:00:00 12,1 -5,0 11,4 9,6 8,3 7,7 11 6 25 13 NNE 1032,1 70 59 0,0
20.03.2019 17:00:00 12,8 -5,8 14,2 11,7 8,2 7,7 17 9 32 17 N 1031,5 70 60 0,0
20.03.2019 16:00:00 13,1 -4,7 16,2 13,5 7,8 7,7 18 10 29 16 N 1031,6 50 60 0,0
20.03.2019 15:00:00 12,9 -1,3 17,0 14,2 7,3 7,7 19 11 36 19 NNW 1032,0 30 60 0,0
20.03.2019 14:00:00 11,5 -0,5 16,3 14,3 6,7 7,7 24 13 33 18 NNW 1032,8 28 60 0,0
20.03.2019 13:00:00 10,8 -0,8 15,5 14,8 5,9 7,7 18 10 30 16 N 1033,5 28 60 0,0
20.03.2019 12:00:00 9,7 0,3 15,0 13,7 5,0 7,7 10 5 17 9 WNW 1034,0 31 60 0,0
20.03.2019 11:00:00 7,5 -1,2 13,7 10,7 4,4 7,7 7 4 14 7 NNW 1034,6 44 60 0,0
20.03.2019 10:00:00 5,7 -0,5 11,2 6,1 4,1 7,7 6 4 14 7 N 1034,8 36 60 0,0
20.03.2019 09:00:00 3,4 -2,0 5,3 0,9 4,2 7,7 5 3 11 6 NNE 1034,9 36 60 0,0
20.03.2019 08:00:00 0,8 -2,2 0,5 0,4 4,4 7,7 4 2 9 5 W 1034,8 22 41 0,0
20.03.2019 07:00:00 -2,1 -3,0 -5,0 0,4 4,6 7,7 4 2 5 3 NNW 1034,7 25 0 0,0
20.03.2019 06:00:00 -2,3 -3,6 -5,6 0,6 4,8 7,7 2 1 5 3 N 1034,1 25 0 0,0
20.03.2019 05:00:00 -2,0 -3,7 -5,2 0,7 5,1 7,7 0 0 5 3 N 1033,6 31 0 0,0
20.03.2019 04:00:00 -1,7 -2,5 -4,6 0,9 5,3 7,7 0 0 6 3 N 1033,4 14 0 0,0
20.03.2019 03:00:00 -1,5 -2,4 -4,6 1,2 5,6 7,7 5 3 6 4 N 1033,5 16 0 0,0
20.03.2019 02:00:00 -0,4 -1,9 -3,9 1,5 5,9 7,7 0 0 4 2 N 1033,3 24 0 0,0
20.03.2019 01:00:00 -0,1 -2,0 -3,4 1,7 6,2 7,7 0 0 8 4 N 1033,3 36 0 0,0
20.03.2019 00:00:00 1,5 -1,2 -2,5 2,0 6,5 7,7 7 4 8 5 NNW 1032,7 40 0 0,0
19.03.2019 23:00:00 1,4 -0,8 -2,4 2,4 6,9 7,7 4 2 6 3 NE 1032,4 25 0 0,0
19.03.2019 22:00:00 2,2 -0,8 -1,9 3,2 7,3 7,7 0 0 6 3 N 1031,8 26 0 0,0
19.03.2019 21:00:00 3,9 -0,5 -0,7 4,2 7,6 7,7 3 2 6 4 NNE 1031,2 51 0 0,0
19.03.2019 20:00:00 6,4 -1,3 0,4 5,3 8,0 7,7 4 2 10 6 NNE 1030,4 25 0 0,0
19.03.2019 19:00:00 8,3 -1,6 3,9 6,9 8,2 7,7 6 4 19 10 N 1029,5 63 0 0,0
19.03.2019 18:00:00 9,9 -1,6 9,7 9,3 8,2 7,7 10 6 23 13 N 1028,3 59 58 0,0
19.03.2019 17:00:00 10,4 -1,0 13,9 11,7 8,0 7,7 11 6 22 12 N 1027,9 52 42 0,0
19.03.2019 16:00:00 9,9 -0,9 12,5 12,9 7,6 7,7 9 5 21 11 NNE 1027,9 64 47 0,0
19.03.2019 15:00:00 9,5 -0,4 15,5 12,8 7,3 7,7 8 4 18 10 NNE 1027,9 41 15 0,0
19.03.2019 14:00:00 8,9 0,7 12,1 11,9 6,9 7,7 14 7 26 14 N 1028,1 42 14 0,0
19.03.2019 13:00:00 8,5 0,8 10,5 10,4 6,5 7,7 8 4 20 11 NW 1028,2 52 5 0,0
19.03.2019 12:00:00 7,7 1,7 10,9 12,4 5,8 7,8 13 7 22 12 NNW 1028,3 34 37 0,0
19.03.2019 11:00:00 7,5 0,9 13,0 11,6 5,1 7,7 5 3 15 8 NW 1028,1 46 56 0,0
19.03.2019 10:00:00 5,6 0,2 9,6 8,4 4,7 7,8 8 4 11 6 NNW 1028,2 51 60 0,0
19.03.2019 09:00:00 3,5 0,2 6,2 4,5 4,5 7,8 6 3 16 9 NE 1028,2 47 54 0,0
19.03.2019 08:00:00 2,6 0,1 4,5 1,4 4,6 7,8 0 0 6 4 N 1027,7 39 39 0,0
19.03.2019 07:00:00 -0,7 -1,8 -1,8 1,2 4,8 7,8 3 2 5 3 ENE 1027,7 15 0 0,0
19.03.2019 06:00:00 -1,3 -2,3 -2,0 1,2 5,0 7,8 0 0 3 2 N 1027,2 25 0 0,0
19.03.2019 05:00:00 -0,9 -1,8 -3,3 1,2 5,2 7,8 0 0 5 3 N 1026,5 34 0 0,0
19.03.2019 04:00:00 -0,3 -1,4 -3,5 1,4 5,4 7,8 3 1 11 6 NW 1026,1 35 0 0,0
19.03.2019 03:00:00 -0,7 -1,7 -2,7 1,5 5,7 7,8 3 2 8 5 SSE 1026,2 22 0 0,0
19.03.2019 02:00:00 -0,9 -1,8 -3,3 1,7 5,9 7,8 0 0 6 4 N 1026,2 17 0 0,0
19.03.2019 01:00:00 0,5 -1,3 -1,9 1,9 6,3 7,8 3 2 16 9 N 1025,8 38 0 0,0
19.03.2019 00:00:00 0,9 -0,7 -2,3 2,1 6,6 7,8 3 1 11 6 SW 1026,0 33 0 0,0
18.03.2019 23:00:00 1,3 -0,4 -1,8 2,8 7,0 7,8 4 2 10 5 WSW 1025,8 51 0 0,0
18.03.2019 22:00:00 3,3 0,2 0,1 3,7 7,3 7,8 9 5 13 7 SSE 1025,1 70 0 0,0
18.03.2019 21:00:00 3,8 -0,2 -0,2 4,8 7,6 7,8 4 2 13 7 S 1024,6 70 0 0,0
18.03.2019 20:00:00 6,4 0,2 3,7 6,5 7,7 7,8 6 4 8 5 S 1023,8 70 0 0,0
18.03.2019 19:00:00 7,2 -0,1 5,8 7,4 7,8 7,8 6 3 16 8 WNW 1023,5 70 0 0,0
18.03.2019 18:00:00 7,7 0,2 9,7 8,6 7,8 7,8 9 5 29 16 NW 1022,7 70 23 0,0
18.03.2019 17:00:00 7,7 0,1 7,8 9,9 7,7 7,7 14 8 28 15 NW 1022,1 70 13 0,0

tt = temperature
td = dewpoint
tt 5cm = temperature 5cm
tt -5cm = temperature -5cm
tt -20cm = temperature -20cm
tt -100cm = temperature -100cm
ff = wind speed
fx = gusts
dd = wind direction
ppp = reduced air pressure
vv = visibility
sd = sunshine duration
rr = precipitation

Next stations